DW7921 Weather Reports


Display with metric or nautical units.
time (UTC)temp
F
wind
direction
speed
MPH
gust
MPH
rain 1hr
in
rain 24hr
in
rain mn
in
humidity
%
barometer
mb
20260507084516 50 242 0.0 0.0 0.00 0.00 0.00 89 1021.4
20260507083015 50 277 0.0 0.0 0.00 0.00 0.00 89 1021.3
20260507081513 50 277 0.0 0.0 0.00 0.00 0.00 89 1021.4
20260507080013 50 245 0.0 0.0 0.00 0.00 0.00 89 1021.4
20260507074520 50 250 0.0 0.0 0.00 0.00 0.00 89 1021.4
20260507073010 50 240 0.0 0.0 0.00 0.00 0.00 89 1021.4
20260507071508 50 253 0.0 0.0 0.00 0.00 0.00 89 1021.3
20260507070010 51 228 0.0 0.0 0.00 0.00 0.00 89 1021.3
20260507064506 51 257 0.0 0.0 0.00 0.00 0.00 89 1021.4
20260507063005 51 213 0.0 0.0 0.00 0.00 0.00 89 1021.4
20260507061504 51 221 0.0 0.0 0.00 0.00 0.00 89 1021.5
20260507060005 51 248 0.0 0.0 0.00 0.00 0.00 88 1021.4
20260507054504 51 188 0.0 0.0 0.00 0.00 0.00 88 1021.4
20260507053001 52 242 0.0 0.0 0.00 0.00 0.00 88 1021.3
20260507051502 52 259 0.0 0.0 0.00 0.00 0.00 88 1021.4
20260507050001 52 250 0.0 0.0 0.00 0.00 0.00 88 1021.4
20260507044504 53 256 0.0 0.0 0.00 0.00 0.00 88 1021.5
20260507043059 53 257 0.0 0.0 0.00 0.00 0.00 88 1021.4
20260507041603 53 228 0.0 0.0 0.00 0.00 0.00 87 1021.3
20260507040107 53 240 0.0 0.0 0.00 0.00 0.00 87 1021.3
20260507034618 53 283 0.0 1.0 0.00 0.00 0.00 86 1021.1
20260507033105 53 248 0.0 0.0 0.00 0.00 0.00 86 1021.1
20260507031554 54 259 0.0 0.0 0.00 0.00 0.00 85 1020.9
20260507030053 54 281 0.0 1.0 0.00 0.00 0.00 84 1020.8
20260507024600 55 212 0.0 4.0 0.00 0.00 0.00 83 1020.7
20260507023052 55 284 0.0 2.0 0.00 0.00 0.00 82 1020.6
20260507021558 55 248 0.0 0.0 0.00 0.00 0.00 82 1020.5
20260507020051 55 178 0.0 0.0 0.00 0.00 0.00 81 1020.5
20260507014552 55 243 0.0 0.0 0.00 0.00 0.00 81 1020.5
20260507013106 55 280 0.0 1.0 0.00 0.00 0.00 81 1020.5
20260507011549 55 242 0.0 2.0 0.00 0.00 0.00 81 1020.5
20260507010052 56 264 0.0 3.0 0.00 0.00 0.00 81 1020.7
20260507004548 56 267 0.0 3.0 0.00 0.00 0.00 80 1020.7
20260507003047 56 280 0.0 0.0 0.00 0.00 0.00 81 1020.7
20260507001606 56 253 0.0 1.0 0.00 0.00 0.00 81 1020.6
20260507000046 56 267 0.0 1.0 0.00 0.00 0.00 81 1020.7
20260506234555 56 245 0.0 1.0 0.00 0.00 0.00 81 1020.7
20260506233045 55 268 0.0 0.0 0.00 0.00 0.00 81 1020.7
20260506231544 56 266 0.0 1.0 0.00 0.00 0.00 80 1020.8
20260506230043 56 246 0.0 1.0 0.00 0.00 0.00 79 1020.9
20260506224557 56 253 0.0 2.0 0.00 0.00 0.00 79 1020.8
20260506223042 56 262 0.0 1.0 0.00 0.00 0.00 78 1020.9
20260506221541 56 228 0.0 1.0 0.00 0.00 0.00 78 1020.9
20260506220045 56 240 0.0 4.0 0.00 0.00 0.00 79 1021.0
20260506214539 56 249 0.0 6.0 0.00 0.00 0.00 79 1021.0
20260506213040 55 281 0.0 4.0 0.00 0.00 0.00 80 1021.1
20260506211540 56 240 0.0 1.0 0.00 0.00 0.00 79 1021.2
20260506210035 56 249 0.0 1.0 0.00 0.00 0.00 79 1021.1
20260506204538 55 233 0.0 0.0 0.00 0.00 0.00 80 1021.0
20260506203032 55 270 0.0 0.0 0.00 0.00 0.00 80 1021.0
20260506201532 56 278 0.0 0.0 0.00 0.00 0.00 80 1020.9
20260506200029 56 288 0.0 0.0 0.00 0.00 0.00 81 1020.8
20260506194533 55 133 0.0 0.0 0.00 0.00 0.00 82 1020.8
20260506193024 54 252 0.0 0.0 0.00 0.00 0.00 83 1020.7
20260506191522 54 276 0.0 2.0 0.00 0.00 0.00 84 1020.6
20260506190021 54 277 0.0 1.0 0.00 0.00 0.00 85 1020.6
20260506184524 53 256 0.0 1.0 0.00 0.00 0.00 87 1020.7
20260506183019 53 278 0.0 1.0 0.00 0.00 0.00 88 1020.7
20260506181518 52 273 0.0 1.0 0.00 0.00 0.00 88 1020.7
20260506180017 52 252 0.0 1.0 0.00 0.00 0.00 89 1020.3
20260506174516 52 235 0.0 0.0 0.00 0.00 0.00 89 1020.3
20260506173020 52 287 0.0 0.0 0.00 0.00 0.00 89 1020.5
20260506171520 52 260 0.0 0.0 0.00 0.00 0.00 89 1020.5
20260506170015 52 238 0.0 0.0 0.00 0.00 0.00 89 1020.4
20260506164515 51 262 0.0 3.0 0.00 0.00 0.00 89 1020.3
20260506163012 51 267 0.0 1.0 0.00 0.00 0.00 88 1020.1
20260506161510 51 284 0.0 0.0 0.00 0.00 0.00 87 1019.8
20260506160015 51 280 0.0 1.0 0.00 0.00 0.00 87 1019.8
20260506154516 51 229 0.0 1.0 0.00 0.00 0.00 88 1019.9
20260506153008 51 229 0.0 0.0 0.00 0.00 0.00 88 1020.2
20260506151508 51 245 0.0 0.0 0.00 0.00 0.00 87 1019.9
20260506150007 51 233 0.0 1.0 0.00 0.00 0.00 87 1019.7
20260506144610 51 249 0.0 0.0 0.00 0.00 0.00 88 1019.9
20260506143002 51 277 0.0 0.0 0.00 0.00 0.00 88 1019.8
20260506141557 0 0.0 0.0 0.00 0.00 0.00 1019.5
20260506140054 0 0.0 0.0 0.00 0.00 0.00 1019.7
20260506134549 0 0.0 0.0 0.00 0.00 0.00 1019.4
20260506133045 0 0.0 0.0 0.00 0.00 0.00 1019.6
20260506131555 0 0.0 0.0 0.00 0.00 0.00 1019.4
20260506130040 0 0.0 0.0 0.00 0.00 0.00 1019.1
20260506124534 51 252 0.0 0.0 0.00 0.00 0.00 88 1019.1
20260506123031 52 277 0.0 0.0 0.00 0.00 0.00 89 1018.9
20260506121530 52 264 0.0 0.0 0.00 0.00 0.00 89 1018.9
20260506120029 52 214 0.0 0.0 0.00 0.00 0.00 89 1018.8
20260506114528 52 259 0.0 0.0 0.00 0.00 0.00 89 1018.6
20260506113027 52 262 0.0 0.0 0.00 0.00 0.00 88 1018.6
20260506111525 52 240 0.0 0.0 0.00 0.00 0.00 88 1018.6
20260506110025 52 262 0.0 0.0 0.00 0.00 0.00 88 1018.5
20260506104523 52 270 0.0 0.0 0.00 0.00 0.00 88 1018.4
20260506103032 52 229 0.0 0.0 0.00 0.00 0.00 88 1018.3
20260506101522 52 249 0.0 0.0 0.00 0.00 0.00 88 1018.2
20260506100018 52 233 0.0 0.0 0.00 0.00 0.00 88 1018.1
20260506094518 52 193 0.0 0.0 0.00 0.00 0.00 88 1017.8
20260506093015 52 276 0.0 0.0 0.00 0.00 0.00 88 1017.8
20260506091514 52 249 0.0 0.0 0.00 0.00 0.00 88 1017.7
20260506090013 52 250 0.0 0.0 0.00 0.00 0.00 88 1017.7